x

Frying Pan Shoals, Nc Buoy (41013) Wave Buoy

12:50pm - Wed 18th Jan 2017 All times are EST. -5 hours from GMT.

  • Sig Wave height 5.6ft
  • Swell Direction
  • Peak Period 6s
  • Average Period 4s
  • Wind
    25mph, 29mph gusts
  • Sea Temp 71°f
  • 空気 Temp 69°f
  • Sea Pressure 1013.9mb
  • Frying Pan Shoals, Nc Buoy
  • Frying Pan Shoals, Nc Buoy

More Historic Weather Station data

Upgrade to MSW Pro to gain access to the past 30 days of data for over 8000 Wavebouys and Weather Stations around the globe.

Join Pro

Comparision Forecast

View Surf forecast
   
Wed 01/18 12:50pm 5.5ft 6s 4s 25 29 mph 1013.9mb 71f 69f
12:40pm  -   -   -  25 29 mph 1014mb 71f 69f
12:30pm  -   -   -  25 31 mph 1014.4mb 71f 69f
12:20pm  -   -   -  25 31 mph 1014.3mb 71f 69f
12:10pm  -   -   -  25 29 mph 1014.4mb 71f 69f
12:00pm  -   -   -  27 34 mph 1014.6mb 71f 69f
11:50am 5.5ft 6s 5s 27 31 mph 1015mb 71f 69f
11:40am 5.5ft  -  5s 27 31 mph 1015.3mb 71f 69f
11:30am  -   -   -  27 31 mph 1015.8mb 71f 69f
11:20am  -   -   -  27 34 mph 1016mb 71f 69f
11:10am  -   -   -  27 31 mph 1016.3mb 71f 69f
11:00am  -   -   -  27 34 mph 1016.5mb 71f 69f
10:50am 5.5ft 6s 4s 25 31 mph 1017mb 71f 69f
10:40am 5.5ft  -  4s 27 36 mph 1017.4mb 71f 69f
10:30am  -   -   -  27 31 mph 1017.4mb 71f 69f
10:20am  -   -   -  25 31 mph 1017.5mb 71f 69f
10:10am  -   -   -  27 31 mph 1017.5mb 71f 69f
10:00am  -   -   -  25 29 mph 1017.5mb 71f 69f
9:50am 5ft 5s 4s 25 34 mph 1017.4mb 71f 69f
9:40am 5ft  -  4s 25 31 mph 1017.5mb 71f 69f
9:30am  -   -   -  25 31 mph 1017.5mb 71f 69f
9:20am  -   -   -  25 31 mph 1017.4mb 71f 69f
9:10am  -   -   -  25 29 mph 1017.5mb 71f 69f
9:00am  -   -   -  25 29 mph 1017.6mb 71f 69f
8:50am 6ft 6s 5s 25 31 mph 1017.6mb 71f 69f
8:40am 6ft  -  5s 25 31 mph 1017.8mb 71f 69f
8:30am  -   -   -  25 29 mph 1017.8mb 71f 69f
8:20am  -   -   -  25 31 mph 1017.8mb 71f 69f
8:10am  -   -   -  25 34 mph 1017.6mb 71f 69f
8:00am  -   -   -  27 31 mph 1017.5mb 71f 69f
7:50am 6ft 6s 5s 27 31 mph 1017.6mb 71f 69f
7:40am 6ft  -  5s 27 34 mph 1017.5mb 71f 69f
7:30am  -   -   -  27 34 mph 1017.5mb - -
7:20am  -   -   -  27 34 mph 1017.5mb 71f 69f
7:10am  -   -   -  27 34 mph 1017.5mb 71f 69f
7:00am  -   -   -  27 31 mph 1017.5mb 71f 69f
6:50am 5.5ft 6s 4s 27 31 mph 1017.8mb 71f 69f
6:40am 5.5ft  -  4s 27 34 mph 1017.8mb 71f 70f
6:30am  -   -   -  27 34 mph 1017.8mb 71f 70f
6:20am  -   -   -  27 31 mph 1017.6mb 71f 70f
6:10am  -   -   -  27 31 mph 1017.6mb 71f 70f
6:00am  -   -   -  29 34 mph 1017.6mb 71f 70f
5:50am 5ft 5s 4s 27 34 mph 1017.5mb 71f 70f
5:40am  -   -   -  27 36 mph 1017.6mb 71f 70f
5:30am  -   -   -  27 36 mph 1017.6mb 71f 70f
5:20am  -   -   -  27 31 mph 1017.5mb 71f 70f
5:10am  -   -   -  27 31 mph 1017.5mb 71f 70f
5:00am  -   -   -  25 29 mph 1017.5mb 71f 70f
4:50am 5ft 6s 4s 25 31 mph 1017.1mb 71f 70f
4:40am 5ft  -  4s 25 31 mph 1017.1mb 71f 70f
4:30am  -   -   -  25 29 mph 1017mb 71f 71f
4:20am  -   -   -  25 31 mph 1017.3mb 71f 71f
4:10am  -   -   -  25 31 mph 1017.4mb 71f 71f
4:00am  -   -   -  25 31 mph 1017.5mb 71f 71f
3:50am 4.5ft 5s 4s 25 31 mph 1017.5mb 71f 71f
3:40am 4.5ft  -  4s 25 29 mph 1017.6mb 71f 71f
3:30am  -   -   -  22 29 mph 1017.6mb 71f 71f
3:20am  -   -   -  25 29 mph 1017.6mb 71f 71f
3:10am  -   -   -  25 29 mph 1017.8mb 71f 71f
3:00am  -   -   -  22 27 mph 1017.9mb 71f 71f
2:50am 4ft 5s 4s 22 27 mph 1018mb 71f 71f
2:40am 4ft  -  4s 22 27 mph 1018mb 71f 71f
2:30am  -   -   -  22 29 mph 1018.3mb 71f 71f
2:20am  -   -   -  22 27 mph 1018.4mb 71f 71f
2:10am  -   -   -  22 27 mph 1018.5mb 71f 71f
2:00am  -   -   -  20 25 mph 1018.6mb 71f 71f
1:50am 4ft 5s 4s 22 25 mph 1018.6mb 71f 71f
1:40am  -   -   -  20 27 mph 1018.8mb 71f 71f
1:30am  -   -   -  22 27 mph 1018.6mb 71f 71f
1:20am  -   -   -  22 27 mph 1018.8mb 72f 71f
1:10am  -   -   -  22 29 mph 1018.9mb 72f 71f
1:00am  -   -   -  22 27 mph 1019mb 72f 71f
12:50am 3.5ft 4s 4s 22 27 mph 1019mb 72f 71f
12:40am 3.5ft  -  4s 22 27 mph 1019.3mb 72f 71f
12:30am  -   -   -  22 27 mph 1019.4mb 72f 71f
12:20am  -   -   -  22 27 mph 1019.5mb 72f 71f
12:10am  -   -   -  22 27 mph 1019.4mb 72f 71f
12:00am  -   -   -  22 27 mph 1019.5mb 72f 71f
Tue 01/17 11:50pm 3.5ft 4s 4s 22 27 mph 1019.9mb 72f 71f
11:40pm 3.5ft  -  4s 22 27 mph 1020mb 72f 71f
11:30pm  -   -   -  22 27 mph 1020.3mb 72f 71f
11:20pm  -   -   -  22 27 mph 1020.5mb 72f 71f
11:10pm  -   -   -  22 29 mph 1020.5mb 72f 71f
11:00pm  -   -   -  22 27 mph 1020.5mb 72f 71f
10:50pm 3ft 4s 4s 22 29 mph 1020.8mb 72f 71f
10:40pm 3ft  -  4s 22 31 mph 1020.9mb 72f 71f
10:30pm  -   -   -  22 29 mph 1021mb 72f 71f
10:20pm  -   -   -  22 29 mph 1021.3mb 72f 72f
10:10pm  -   -   -  22 27 mph 1021.4mb 72f 72f
10:00pm  -   -   -  20 27 mph 1021.1mb 72f 71f
9:50pm 2.5ft 9s 4s 20 25 mph 1021.1mb 72f 71f
9:40pm 2.5ft  -  4s 18 22 mph 1021.5mb 72f 71f
9:30pm  -   -   -  18 22 mph 1021.5mb 72f 71f
9:20pm  -   -   -  18 22 mph 1021.3mb 72f 71f
9:10pm  -   -   -  18 20 mph 1021.5mb 72f 71f
9:00pm  -   -   -  18 20 mph 1021.5mb 72f 71f
8:10pm  -   -   -  16 20 mph - 72f 71f
8:00pm  -   -   -  16 18 mph - 72f 71f
7:50pm 2ft 8s 4s 13 18 mph 1022mb 72f 71f
7:40pm 2ft  -  4s 13 18 mph 1022.1mb 72f 71f
7:30pm  -   -   -  13 16 mph 1022.1mb 72f 71f
7:20pm  -   -   -  11 13 mph 1022mb 72f 71f
7:10pm  -   -   -  11 13 mph 1022mb 72f 70f
7:00pm  -   -   -  9 13 mph 1021.9mb 72f 70f
6:50pm 2ft 9s 4s 9 11 mph 1021.8mb 72f 70f
6:40pm 2ft  -  4s 9 11 mph 1021.8mb 72f 70f
6:30pm  -   -   -  11 13 mph 1022mb 72f 70f
6:20pm  -   -   -  11 13 mph 1022mb 72f 70f
6:10pm  -   -   -  11 13 mph 1022.4mb 72f 70f
6:00pm  -   -   -  11 13 mph 1022.4mb 72f 70f
5:50pm 2.5ft 8s 5s 11 13 mph 1022.4mb 72f 70f
5:40pm  -   -   -  9 11 mph 1022.4mb 72f 70f
5:30pm  -   -   -  9 11 mph 1022.3mb 72f 70f
5:20pm  -   -   -  11 13 mph 1022.3mb 72f 70f
5:10pm  -   -   -  11 13 mph 1022.3mb 72f 70f
5:00pm  -   -   -  11 13 mph 1022.3mb 72f 70f
4:50pm 2.5ft 10s 5s 9 13 mph 1022.3mb 72f 70f
4:40pm 2.5ft  -  5s 11 13 mph 1022.3mb 72f 70f
4:30pm  -   -   -  11 13 mph 1022mb 72f 70f
4:20pm  -   -   -  9 11 mph 1022mb 72f 70f
4:10pm  -   -   -  9 11 mph 1021.9mb 72f 70f
4:00pm  -   -   -  9 11 mph 1022mb 72f 70f
3:50pm 2.5ft 9s 5s 9 11 mph 1021.9mb 72f 70f
3:40pm 2.5ft  -  5s 9 11 mph 1022mb 72f 70f
3:30pm  -   -   -  9 11 mph 1021.9mb 72f 69f
3:20pm  -   -   -  9 11 mph 1021.9mb 72f 69f
3:10pm  -   -   -  9 11 mph 1021.9mb 72f 70f
3:00pm  -   -   -  9 11 mph 1021.9mb 72f 70f
2:50pm 2.5ft 8s 4s 11 16 mph 1022mb 72f 71f
2:40pm  -   -   -  13 16 mph 1022mb 72f 71f
2:30pm  -   -   -  13 16 mph 1022mb 72f 71f
2:20pm  -   -   -  13 16 mph 1022.1mb 72f 71f
2:10pm  -   -   -  13 16 mph 1022.3mb 72f 71f
2:00pm  -   -   -  13 16 mph 1022.4mb 72f 71f
1:50pm 2.5ft 10s 4s 13 16 mph 1022.5mb 72f 71f
1:40pm  -   -   -  13 16 mph 1022.5mb 73f 71f
1:30pm  -   -   -  13 16 mph 1022.6mb 73f 71f
1:20pm  -   -   -  13 16 mph 1022.6mb 73f 71f
1:10pm  -   -   -  11 16 mph 1022.6mb 73f 71f
1:00pm  -   -   -  13 16 mph 1022.6mb 73f 71f
12:50pm 2.5ft 9s 5s 11 16 mph 1022.9mb 73f 72f
12:40pm 2.5ft  -  5s 13
mph
1023mb 73f 71f
12:30pm  -   -   -  11 13 mph 1023.3mb 73f 72f
12:20pm  -   -   -  13 16 mph 1023.5mb 73f 72f
12:10pm  -   -   -  11 16 mph 1023.5mb 73f 72f
12:00pm  -   -   -  11 16 mph 1023.9mb 73f 72f
11:50am 2.5ft 10s 5s 11 13 mph 1024mb 73f 72f
11:40am 2.5ft  -  5s 11 16 mph 1024.3mb 73f 72f
11:30am  -   -   -  11 16 mph 1024.2mb 73f 72f
11:20am  -   -   -  11 16 mph 1024.3mb 73f 72f
11:10am  -   -   -  11 13 mph 1024.5mb 73f 72f
11:00am  -   -   -  11 13 mph 1024.5mb - -
10:50am 2.5ft 8s 6s 11 16 mph 1024.8mb 73f 73f
10:40am  -   -   -  11 13 mph 1024.8mb 73f 73f
10:30am  -   -   -  11 16 mph 1024.8mb 73f 72f
10:20am  -   -   -  11 13 mph 1024.8mb 73f 72f
10:10am  -   -   -  11 13 mph 1024.8mb 73f 72f
10:00am  -   -   -  11 13 mph 1025mb 73f 72f
9:50am 2.5ft 10s 6s 9 13 mph 1024.8mb 73f 73f
9:40am 2.5ft  -  6s 11 13 mph 1025mb 73f 72f
9:30am  -   -   -  9 11 mph 1024.8mb 73f 72f
9:20am  -   -   -  11 13 mph 1024.8mb 73f 72f
9:10am  -   -   -  11 13 mph 1024.8mb 73f 72f
9:00am  -   -   -  9 11 mph 1024.5mb - -
8:50am 2.5ft 10s 6s 9 11 mph 1024.5mb 73f 72f
8:10am  -   -   -  9 11 mph 1024.3mb - -
8:00am  -   -   -  9 11 mph 1024.3mb 73f 72f
7:50am 2.5ft 8s 6s 9 11 mph 1024.3mb 73f 71f
7:40am  -   -   -  9 11 mph 1024.3mb 73f 71f
7:30am  -   -   -  9 11 mph 1024.2mb 72f 71f
7:20am  -   -   -  9 11 mph 1024mb 71f 71f
7:10am  -   -   -  9 11 mph 1024mb 71f 71f
7:00am  -   -   -  9 11 mph 1024mb 71f 71f
6:50am 2.5ft 7s 5s 9 11 mph 1024mb 71f 71f
6:40am 2.5ft  -  5s 9 11 mph 1024mb 71f 71f
6:30am  -   -   -  9 11 mph 1023.8mb 71f 71f
6:20am  -   -   -  9 11 mph 1023.8mb 71f 71f
6:10am  -   -   -  9 11 mph 1023.6mb 71f 71f
6:00am  -   -   -  9 11 mph 1023.6mb 71f 71f
5:50am 2.5ft 8s 5s 9 11 mph 1023.6mb 71f 70f
5:40am  -   -   -  9 11 mph 1023.5mb 71f 70f
5:30am  -   -   -  9
mph
1023.6mb 71f 70f
5:20am  -   -   -  9 11 mph 1023.5mb 71f 70f
5:10am  -   -   -  7 9 mph 1023.6mb 71f 70f
5:00am  -   -   -  7 9 mph 1023.8mb 71f 70f
4:50am 3ft 10s 5s 7 9 mph 1023.8mb 71f 70f
4:40am 3ft  -  5s 7 11 mph 1023.9mb 71f 69f
4:30am  -   -   -  7 9 mph 1023.9mb 71f 69f
4:20am  -   -   -  7 9 mph 1023.9mb 71f 69f
4:10am  -   -   -  9 11 mph 1024mb 71f 69f
4:00am  -   -   -  9 11 mph 1024mb 70f 69f
3:50am 3.5ft 8s 5s 9 11 mph 1024mb 70f 69f
3:40am  -   -   -  9 11 mph 1024mb 70f 69f
3:30am  -   -   -  7 9 mph 1024.3mb 70f 68f
3:20am  -   -   -  7 9 mph 1024.3mb 70f 68f
3:00am  -   -   -  7 9 mph 1024.3mb 70f 68f
2:50am 3ft 11s 5s 9 11 mph 1024.5mb 70f 68f
2:40am 3ft  -  5s 7 11 mph 1024.5mb 70f 67f
2:30am  -   -   -  9 11 mph 1024.5mb 70f 67f
2:20am  -   -   -  9 11 mph 1024.5mb 70f 67f
2:10am  -   -   -  9 13 mph 1024.5mb 70f 67f
2:00am  -   -   -  9 11 mph 1024.5mb 70f 67f
1:50am 3.5ft 9s 5s 9 11 mph 1024.7mb 70f 67f
1:40am  -   -   -  11 13 mph 1024.7mb 70f 67f
1:30am  -   -   -  9 11 mph 1024.7mb 70f 67f
1:20am  -   -   -  11 13 mph 1024.8mb 70f 67f
1:10am  -   -   -  11
mph
1024.7mb 70f 67f
1:00am  -   -   -  11 13 mph 1024.8mb 70f 67f
12:50am 3ft 8s 5s 11 13 mph 1025mb 70f 67f
12:40am 3ft  -  5s 11 13 mph 1025mb 70f 66f
12:30am  -   -   -  9 11 mph 1025.2mb 70f 67f
12:20am  -   -   -  9 11 mph 1025.3mb 70f 67f
12:10am  -   -   -  9 13 mph 1025.3mb 70f 66f
12:00am  -   -   -  9 13 mph 1025.5mb 70f 66f
Mon 01/16 11:50pm 3.5ft 8s 5s 11 13 mph 1025.5mb 70f 66f
11:40pm 3.5ft  -  5s 11 13 mph 1025.5mb 70f 66f
11:30pm  -   -   -  11 16 mph 1025.8mb 70f 66f
11:20pm  -   -   -  11 16 mph 1025.8mb 70f 66f
11:10pm  -   -   -  11 16 mph 1026mb 70f 66f
11:00pm  -   -   -  11 16 mph 1026mb 70f 66f
10:50pm 3.5ft 8s 5s 11 16 mph 1026mb 70f 66f
10:40pm  -   -   -  11 16 mph 1026mb 70f 66f
10:30pm  -   -   -  13 16 mph 1026mb 70f 66f
10:20pm  -   -   -  13 16 mph 1026.3mb 70f 66f
10:10pm  -   -   -  13 16 mph 1026.3mb 70f 66f
10:00pm  -   -   -  13 16 mph 1026.5mb 70f 65f
9:50pm 3.5ft  -  5s 13 16 mph 1026.3mb 70f 65f
9:44pm 3.5ft 6s  -   -  mph - - -
9:40pm  -   -   -  13 18 mph 1026.5mb 70f 65f
9:30pm  -   -   -  13 18 mph 1026.7mb 70f 65f
9:20pm  -   -   -  13 18 mph 1026.8mb 70f 65f
9:10pm  -   -   -  13 18 mph 1026.5mb 70f 65f
9:00pm  -   -   -  13 18 mph 1026.8mb 70f 65f
8:50pm 3.5ft 6s 5s 13 18 mph 1027mb 70f 65f
8:40pm 3.5ft  -  5s 13 18 mph 1026.8mb 70f 65f
8:30pm  -   -   -  16 18 mph 1026.8mb 70f 65f
8:20pm  -   -   -  13 18 mph 1026.8mb 70f 65f
8:10pm  -   -   -  13 18 mph 1026.7mb 70f 65f
8:00pm  -   -   -  16 22 mph - 70f 65f
7:50pm 3.5ft 9s 4s 16 20 mph 1026.5mb 70f 65f
7:40pm 3.5ft  -  4s 16 20 mph 1026.5mb 70f 65f
7:30pm  -   -   -  16 20 mph 1026.8mb 70f 65f
7:20pm  -   -   -  16 18 mph 1027mb 70f 65f
7:10pm  -   -   -  16 20 mph 1026.8mb 70f 65f
7:00pm  -   -   -  16 20 mph 1026.8mb 70f 65f
6:50pm 3.5ft 6s 4s 18 20 mph 1026.8mb 70f 65f
6:40pm  -   -   -  16 18 mph 1027mb 70f 65f
6:30pm  -   -   -  16 20 mph 1027mb 70f 65f
6:20pm  -   -   -  16 18 mph 1027mb 70f 65f
6:10pm  -   -   -  16 18 mph 1027mb 70f 65f
6:00pm  -   -   -  16 18 mph 1027mb 70f 65f
5:50pm 4ft 6s 5s 16 18 mph 1027mb 70f 65f
5:40pm  -   -   -  16 20 mph 1026.8mb 70f 65f
5:30pm  -   -   -  16 20 mph 1026.8mb 70f 65f
5:20pm  -   -   -  16 20 mph 1027mb 71f 65f
5:10pm  -   -   -  18 20 mph 1026.8mb 71f 65f
5:00pm  -   -   -  16 20 mph 1026.8mb 71f 65f
4:50pm 4ft 6s 5s 18 20 mph 1026.7mb 71f 65f
4:40pm  -   -   -  16 20 mph 1026.7mb 71f 65f
4:30pm  -   -   -  16 20 mph 1026.7mb - -
4:20pm  -   -   -  18 20 mph 1026.7mb 71f 65f
4:10pm  -   -   -  16 18 mph 1026.7mb 70f 65f
4:00pm  -   -   -  16 18 mph 1026.7mb 70f 64f
3:50pm 4ft 6s 4s 16 18 mph 1026.5mb 70f 64f
3:40pm 4ft  -  4s 16 20 mph 1026.5mb 70f 64f
3:30pm  -   -   -  18 20 mph 1026.3mb 70f 64f
3:20pm  -   -   -  18 22 mph 1026.5mb 71f 63f
3:10pm  -   -   -  18 20 mph 1026.5mb 71f 64f
3:00pm  -   -   -  18 20 mph 1026.5mb - -
2:50pm 4.5ft 6s 5s 18 22 mph 1026.7mb 71f 64f
2:40pm 4.5ft  -  5s 18 20 mph 1026.7mb 71f 64f
2:30pm  -   -   -  18 20 mph 1026.8mb 71f 65f
2:20pm  -   -   -  16 20 mph 1026.8mb 71f 65f
2:10pm  -   -   -  16 20 mph 1026.7mb - 65f
2:00pm  -   -   -  16 20 mph 1026.8mb 71f 65f
1:50pm 4.5ft 6s 5s 16 20 mph 1026.8mb 71f 65f
1:40pm  -   -   -  18 22 mph 1026.8mb 71f 65f
1:30pm  -   -   -  18 22 mph 1026.7mb 71f 65f
1:20pm  -   -   -  18 20 mph 1026.8mb 71f 65f
1:10pm  -   -   -  18 20 mph 1026.8mb 71f 65f
1:00pm  -   -   -  18 22 mph 1027mb 71f 65f
12:50pm 4.5ft 6s 5s 18 22 mph 1026.8mb 71f 65f
12:40pm  -   -   -  18 22 mph 1027mb 71f 65f
12:30pm  -   -   -  20 25 mph 1027mb 71f 65f
12:20pm  -   -   -  20 22 mph 1027.2mb 71f 65f
12:10pm  -   -   -  20 25 mph 1027.3mb 71f 65f
12:00pm  -   -   -  20 22 mph 1027.5mb 71f 65f
11:50am 4.5ft 6s 5s 20 25 mph 1027.7mb 71f 65f
11:40am  -   -   -  20 22 mph 1027.8mb 71f 65f
11:30am  -   -   -  20 22 mph 1028mb 71f 64f
11:20am  -   -   -  18 22 mph 1028mb 71f 64f
11:10am  -   -   -  18 22 mph 1028.3mb 71f 64f
11:00am  -   -   -  18 25 mph 1028.3mb 71f 64f
10:50am 4.5ft 6s 5s 18 22 mph 1028.5mb 71f 64f
10:40am  -   -   -  18 22 mph 1028.7mb 71f 64f
10:30am  -   -   -  18 22 mph 1028.7mb - -
10:20am  -   -   -  18 22 mph 1028.8mb 71f 63f
10:10am  -   -   -  18 22 mph 1028.5mb 71f 63f
10:00am  -   -   -  18 22 mph 1028.7mb 71f 63f
9:50am 4.5ft 5s 5s 18 25 mph 1028.3mb 71f 64f
9:40am 4.5ft  -  5s 18 22 mph 1028.3mb 71f 64f
9:30am  -   -   -  16 20 mph 1028.3mb 71f 64f
9:20am  -   -   -  16 20 mph 1028.3mb 71f 64f
9:10am  -   -   -  16 20 mph 1028.3mb 71f 64f
9:00am  -   -   -  16 20 mph 1028mb 71f 63f
8:50am 4.5ft 5s 5s 13 20 mph 1028mb 71f 64f
8:40am  -   -   -  16 20 mph 1027.8mb 71f 64f
8:30am  -   -   -  16 20 mph 1027.5mb 71f 64f
8:20am  -   -   -  16 20 mph 1027.5mb 71f 64f
8:10am  -   -   -  16 20 mph 1027.3mb 71f 63f
8:00am  -   -   -  18 22 mph 1027.2mb 71f 63f
7:50am 4.5ft 5s 5s 18 20 mph 1027mb 71f 64f
7:40am  -   -   -  16 20 mph 1027mb 71f 64f
7:30am  -   -   -  18 20 mph 1027mb 71f 64f
7:20am  -   -   -  18 22 mph 1026.8mb 71f 64f
7:10am  -   -   -  18 22 mph 1026.7mb 71f 64f
7:00am  -   -   -  18 22 mph 1026.8mb 71f 64f
6:50am 4.5ft 6s 5s 20 25 mph 1026.7mb 71f 64f
6:40am 4.5ft  -  5s 20 22 mph 1026.8mb 70f 64f
6:30am  -   -   -  18 22 mph 1026.8mb 70f 64f
6:20am  -   -   -  18 22 mph 1026.7mb 70f 64f
6:10am  -   -   -  18 22 mph 1026.5mb 70f 64f
6:00am  -   -   -  18 22 mph 1026.3mb 70f 65f
5:50am 3.5ft 11s 4s 18 20 mph 1026.3mb 70f 65f
5:40am 3.5ft  -  4s 18 20 mph 1026.3mb 70f 64f
5:30am  -   -   -  16 20 mph 1026.2mb 70f 64f
5:20am  -   -   -  16 22 mph 1026.2mb 70f 64f
5:10am  -   -   -  16 18 mph 1026mb 70f 64f
5:00am  -   -   -  16 20 mph 1026.2mb 69f 64f
4:50am 4ft 11s 5s 16 20 mph 1025.8mb 69f 65f
4:40am 4ft  -  5s 16 20 mph 1025.8mb 69f 65f
4:30am  -   -   -  16 20 mph 1025.8mb 69f 64f
4:20am  -   -   -  16 20 mph 1025.8mb 69f 64f
4:10am  -   -   -  16 18 mph 1025.8mb 69f 65f
4:00am  -   -   -  16 18 mph 1025.8mb 69f 65f
3:50am 3.5ft 10s 4s 16 18 mph 1025.8mb 69f -
3:40am 3.5ft  -  4s 16 20 mph 1025.8mb 69f 65f
3:30am  -   -   -  16 20 mph 1025.8mb 69f 65f
3:20am  -   -   -  18 20 mph 1025.8mb 69f 65f
3:10am  -   -   -  16 18 mph 1025.8mb 69f 65f
3:00am  -   -   -  16 18 mph 1025.8mb 69f 65f
2:50am 4ft 7s 5s 13 18 mph 1025.8mb 69f 65f
2:40am 4ft  -  5s 16 18 mph 1026mb 69f 65f
2:30am  -   -   -  13 18 mph 1026mb 69f 65f
2:20am  -   -   -  13 18 mph 1025.8mb 69f 65f
2:10am  -   -   -  16 18 mph 1025.8mb 68f 65f
2:00am  -   -   -  16 18 mph 1025.8mb 68f 65f
1:50am 4ft 10s 5s 16 20 mph 1025.8mb 68f 65f
1:40am  -   -   -  13 18 mph 1025.8mb 68f 65f
1:30am  -   -   -  13 18 mph 1025.8mb 69f 65f
1:20am  -   -   -  13 16 mph 1025.7mb 70f 65f
1:10am  -   -   -  13 16 mph 1025.7mb 70f 66f
1:00am  -   -   -  11 16 mph 1025.8mb 70f 66f
12:50am 4ft 11s 5s 11 16 mph 1026mb 70f 65f
12:40am 4ft  -  5s 11 16 mph 1025.8mb 70f 65f
12:30am  -   -   -  11 16 mph 1025.8mb 70f 65f
12:20am  -   -   -  11 16 mph 1025.8mb 70f 65f
12:10am  -   -   -  13 16 mph 1026mb 70f 65f
12:00am  -   -   -  13 16 mph 1026mb 70f 65f
Sun 01/15 11:50pm 4ft 11s 5s 13 16 mph 1026.2mb 70f 65f
11:40pm  -   -   -  13 16 mph 1026.2mb 70f 65f
11:30pm  -   -   -  13 16 mph 1026mb 70f 65f
11:20pm  -   -   -  13 18 mph 1026.2mb 70f 65f
11:10pm  -   -   -  13 16 mph 1026.2mb 70f 65f
11:00pm  -   -   -  13 16 mph 1026.2mb 70f 65f
10:50pm 4ft 11s 5s 13 16 mph 1026.2mb 69f 65f
10:40pm 4ft  -  5s 13 18 mph 1026mb 69f 65f
10:30pm  -   -   -  13 16 mph 1026.2mb 69f 65f
10:20pm  -   -   -  13 16 mph 1026.2mb 69f 66f
10:10pm  -   -   -  11 16 mph 1026.2mb 69f 65f
10:00pm  -   -   -  11 16 mph 1026.2mb 69f 65f
9:50pm 3.5ft 11s 5s 11 16 mph 1026.3mb 69f 65f
9:40pm 3.5ft  -  5s 13 16 mph 1026.3mb 69f 65f
9:30pm  -   -   -  13 16 mph 1026.3mb 68f 65f
9:20pm  -   -   -  13 16 mph 1026.3mb 68f 65f
9:10pm  -   -   -  13 16 mph 1026.3mb 68f 64f
9:00pm  -   -   -  13 18 mph 1026.3mb 68f 64f
8:50pm 3.5ft 11s 5s 13 16 mph 1026.2mb 68f 64f
8:40pm  -   -   -  16 18 mph 1026.2mb 68f 64f
8:20pm  -   -   -  16 20 mph 1026.2mb 68f 64f
8:10pm  -   -   -  16 20 mph 1026.2mb 69f 63f
8:00pm  -   -   -  16 20 mph 1026.2mb 69f 63f
7:50pm 3.5ft 11s 5s 16 20 mph 1026.2mb 69f 63f
7:40pm  -   -   -  16 20 mph 1026.2mb 69f 64f
7:30pm  -   -   -  16 18 mph 1026.2mb 69f 64f
7:20pm  -   -   -  16 18 mph 1026mb 68f 63f
7:10pm  -   -   -  16 20 mph 1026mb 68f 63f
7:00pm  -   -   -  16 20 mph 1026mb 68f 63f
6:50pm 3ft 11s 4s 16 20 mph 1026mb 68f 63f
6:40pm 3ft  -  4s 16 20 mph 1025.8mb 68f 63f
6:30pm  -   -   -  18 20 mph 1025.8mb 68f 63f
6:20pm  -   -   -  16 20 mph 1025.7mb 68f 63f
6:10pm  -   -   -  18 20 mph 1025.5mb 68f 63f
6:00pm  -   -   -  16 20 mph 1025.5mb 68f 64f
5:50pm 3ft 11s 5s 16 18 mph 1025.5mb 68f 64f
5:40pm  -   -   -  13 18 mph 1025.3mb 68f 64f
5:30pm  -   -   -  13 18 mph 1025.3mb 68f 64f
5:20pm  -   -   -  13 18 mph 1025.3mb 68f 64f
5:10pm  -   -   -  13 16 mph 1025.3mb 68f 64f
5:00pm  -   -   -  13 16 mph 1025.3mb - -
4:50pm 3ft 11s 7s 11 16 mph 1025.2mb 68f 64f
4:40pm 3ft  -  7s 9 13 mph 1025mb 68f 64f
4:30pm  -   -   -  9 13 mph 1025mb 68f 64f
4:20pm  -   -   -  11 16 mph 1025mb 68f 64f
4:10pm  -   -   -  11 13 mph 1025mb 68f 64f
4:00pm  -   -   -  11 13 mph 1025mb 68f 64f
3:50pm 3ft 11s 7s 9 11 mph 1024.8mb 68f 63f
3:40pm 3ft  -  7s 11 13 mph 1025mb 68f 63f
3:30pm  -   -   -  9 13 mph 1025mb 68f 63f
3:20pm  -   -   -  9 11 mph 1024.8mb 68f 63f
3:10pm  -   -   -  9 11 mph 1024.8mb - 63f
3:00pm  -   -   -  7 9 mph 1024.7mb 68f 63f
2:50pm 3ft 11s 8s 4 9 mph 1024.7mb 68f 63f
2:40pm  -   -   -  2 7 mph 1024.5mb 68f 63f
2:30pm  -   -   -  4 7 mph 1024.5mb 68f 63f
2:20pm  -   -   -  4 7 mph 1024.5mb 68f 63f
2:10pm  -   -   -  4 7 mph 1024.5mb 68f 63f
2:00pm  -   -   -  7 9 mph 1024.7mb 68f 62f
1:50pm 3.5ft 11s 7s 7 9 mph 1024.7mb 68f 62f
1:40pm  -   -   -  7 9 mph 1024.8mb 69f 63f
1:30pm  -   -   -  7 9 mph 1024.8mb 69f 63f
1:20pm  -   -   -  4 7 mph 1024.8mb 69f 63f
1:10pm  -   -   -  4 7 mph 1024.8mb 69f 63f
1:00pm  -   -   -  4 7 mph 1025mb 69f 63f
12:50pm 3.5ft 11s 7s 4 7 mph 1025.3mb 69f 63f
12:40pm 3.5ft  -  7s 7 9 mph 1025.5mb 69f 63f
12:30pm  -   -   -  4 7 mph 1025.5mb 69f 63f
12:20pm  -   -   -  7
mph
1025.5mb 69f 63f
12:10pm  -   -   -  7 9 mph 1025.8mb 69f 63f
12:00pm  -   -   -  7 9 mph 1026mb 69f 64f
11:50am 3ft 11s 7s 7 9 mph 1026.2mb 69f 64f
11:40am 3ft  -  7s 7 9 mph 1026.2mb 68f 64f
11:30am  -   -   -  7 9 mph 1026.3mb 68f 64f
11:20am  -   -   -  7 11 mph 1026.3mb 68f 64f
11:10am  -   -   -  9 11 mph 1026.5mb 68f 64f
11:00am  -   -   -  9 11 mph 1026.5mb 68f 63f
10:50am 2.5ft 11s 7s 9 11 mph 1026.8mb 68f 63f
10:40am  -   -   -  9 11 mph 1026.8mb 68f 63f
10:30am  -   -   -  9 11 mph 1027mb 68f 63f
10:20am  -   -   -  9 11 mph 1027.2mb 68f 64f
10:10am  -   -   -  9 11 mph 1027.2mb 68f 63f
10:00am  -   -   -  9 11 mph 1027mb 68f 63f
9:50am 3ft 10s 6s 9 11 mph 1027mb 68f 64f
9:40am 3ft  -  6s 9 13 mph 1026.8mb 68f 64f
9:30am  -   -   -  11 13 mph 1026.8mb 68f 64f
9:20am  -   -   -  11 13 mph 1026.8mb 68f 64f
9:10am  -   -   -  11 13 mph 1026.7mb 68f 64f
9:00am  -   -   -  11 13 mph 1026.7mb 68f 64f
8:50am 3.5ft 12s  -  11 13 mph 1026.5mb 68f 64f
8:40am  -   -   -  11 16 mph 1026.5mb 69f 64f
8:30am  -   -   -  11 13 mph 1026.5mb 69f 64f
8:20am  -   -   -  11 13 mph 1026.5mb 69f 64f
8:10am  -   -   -  11 13 mph 1026.3mb - -
8:00am  -   -   -  11 13 mph 1026.3mb 69f 63f
7:50am 3.5ft 11s 7s 11 13 mph 1026.2mb 69f 63f
7:40am  -   -   -  11 13 mph 1026mb 69f 63f
7:30am  -   -   -  11 13 mph 1026mb 69f 63f
7:20am  -   -   -  9 13 mph 1026mb 69f 63f
7:10am  -   -   -  9 13 mph 1026mb 69f 63f
7:00am  -   -   -  9 13 mph 1026mb 69f 63f
6:50am 3.5ft 11s 7s 9 13 mph 1025.8mb 69f 63f
6:40am  -   -   -  9 13 mph 1025.8mb 69f 63f
6:30am  -   -   -  9 11 mph 1025.8mb 69f 63f
6:20am  -   -   -  9 13 mph 1025.7mb 69f 62f
6:10am  -   -   -  9 11 mph 1025.8mb 69f 62f
6:00am  -   -   -  9 11 mph 1025.7mb 70f 62f
5:50am 3.5ft 10s 7s 9 11 mph 1025.5mb 69f 62f
5:40am 3.5ft  -  7s 7 11 mph 1025.5mb 69f 62f
5:30am  -   -   -  7 11 mph 1025.5mb 70f 62f
5:20am  -   -   -  7 11 mph 1025.5mb 70f 62f
5:10am  -   -   -  7 11 mph 1025.5mb 70f 62f
5:00am  -   -   -  7 11 mph 1025.5mb 70f 61f
4:50am 4ft 12s 7s 7 9 mph 1025.5mb 70f 61f
4:40am 4ft  -  7s 7 9 mph 1025.5mb 70f 61f
4:30am  -   -   -  7 9 mph 1025.5mb 70f 61f
4:20am  -   -   -  4 9 mph 1025.5mb 69f 61f
4:10am  -   -   -  4 9 mph 1025.5mb 69f 60f
4:00am  -   -   -  4 7 mph 1025.7mb 69f 60f
3:50am 3.5ft 11s 6s 2 4 mph 1025.7mb 69f 60f
3:40am 3.5ft  -  6s 2 4 mph 1025.8mb 69f 60f
3:30am  -   -   -  2 7 mph 1025.8mb 69f 60f
3:20am  -   -   -  2 7 mph 1026mb 69f 59f
3:10am  -   -   -  2
mph
1026.2mb 69f 59f
3:00am  -   -   -  2 4 mph 1026.2mb 69f 59f
2:50am 4ft 11s 6s 2 4 mph 1026.2mb 69f 59f
2:40am 4ft  -  6s 2 4 mph 1026.2mb 69f 59f
2:30am  -   -   -  2 4 mph 1026.2mb 69f 59f
2:20am  -   -   -  2 4 mph 1026.2mb 69f 59f
2:10am  -   -   -  4 7 mph 1026.3mb 70f 59f
2:00am  -   -   -  4 7 mph 1026.3mb 70f 58f
1:50am 4ft 11s 7s 4 7 mph 1026.3mb 70f 59f
1:40am 4ft  -  7s 4 9 mph 1026.5mb 70f 59f
1:30am  -   -   -  7 9 mph 1026.5mb 70f 59f
1:20am  -   -   -  7 9 mph 1026.7mb 70f 59f
1:10am  -   -   -  9 11 mph 1026.8mb 70f 59f
1:00am  -   -   -  9 11 mph 1026.8mb 70f 60f
12:50am 4ft 11s 7s 7 11 mph 1027mb 70f 60f
12:40am  -   -   -  4 9 mph 1027mb 70f 60f
12:30am  -   -   -  4 9 mph 1027mb 70f 61f
12:20am  -   -   -  4 7 mph 1027mb 70f 61f
12:10am  -   -   -  4 7 mph 1027.2mb - 61f
12:00am  -   -   -  2 4 mph 1027.3mb 70f 61f
Sat 01/14 11:50pm 4.5ft 10s 7s 2 4 mph 1027.5mb 70f 61f
11:40pm 4.5ft  -  7s 2 4 mph 1027.7mb 70f 60f
11:30pm  -   -   -  2 4 mph 1027.8mb 69f 61f
11:20pm  -   -   -  2 4 mph 1027.8mb 69f 60f
11:10pm  -   -   -  2 4 mph 1027.8mb 69f 60f
11:00pm  -   -   -  4 7 mph 1028mb 69f 60f
10:50pm 3.5ft 9s 6s 4 7 mph 1028.3mb 69f 61f
10:40pm 3.5ft  -  6s 4 7 mph 1028.3mb 69f 61f
10:30pm  -   -   -  2 7 mph 1028.3mb 69f 61f
10:20pm  -   -   -  4 7 mph 1028.3mb 69f 61f
10:10pm  -   -   -  4 7 mph 1028.3mb 68f 61f
10:00pm  -   -   -  7 9 mph 1028.5mb 68f 61f
9:50pm 4ft 12s 6s 7 9 mph 1028.5mb 68f 61f
9:40pm 4ft  -  6s 7 9 mph 1028.5mb 68f 62f
9:30pm  -   -   -  7 11 mph 1028.7mb 68f 62f
9:20pm  -   -   -  9 11 mph 1028.7mb 68f 62f
9:10pm  -   -   -  7 11 mph 1028.7mb 68f 62f
9:00pm  -   -   -  9 11 mph 1028.7mb 68f 62f
8:50pm 4ft 11s 6s 9 11 mph 1028.7mb 69f 62f
8:40pm 4ft  -  6s 9 11 mph 1028.7mb 69f 62f
8:30pm  -   -   -  9 13 mph 1028.7mb 68f 62f
8:20pm  -   -   -  11 13 mph 1028.7mb 69f 62f
8:10pm  -   -   -  11 13 mph 1028.7mb 69f 62f
8:00pm  -   -   -  11 13 mph 1028.7mb 69f 61f
7:50pm 4.5ft 12s 6s 11 16 mph 1028.7mb 69f 61f
7:40pm 4.5ft  -  6s 11 16 mph 1028.8mb 69f 61f
7:30pm  -   -   -  11 13 mph 1028.8mb 69f 61f
7:20pm  -   -   -  9 13 mph 1028.7mb 69f 61f
7:10pm  -   -   -  11 13 mph 1028.8mb 69f 61f
7:00pm  -   -   -  9 13 mph 1028.8mb 69f 61f
6:50pm 4ft 12s 6s 11 13 mph 1028.8mb 69f 60f
6:40pm 4ft  -  6s 11 13 mph 1028.8mb 69f 60f